NJE201 LEIB-EHAM

Flight info

Callsign NJE201
Flight time N/A
Altitude 40000
Route EPAMA N856 EBROX Z26 LATRO DCT OLOXO DCT OKABI DCT TOU DCT ADABI DCT BOKNO UN858 VANAD UN874 BAMES UT191 PODEM DCT BAZOS DCT LUMIL DCT BELOB UY873 DENUT
Aircraft CL60/M-SBDE1E2E3FGHIJ1J4J5J7M3RWXYZ/LB1V1D1

Departure

Time 2026-05-01 15:26
Airport Ibiza Airport (LEIB)

Arrival

Time N/A
Airport Amsterdam Airport Schiphol (EHAM)
Time Latitude Longitude Altitude Speed Heading
2026-05-01 14:26 38.87735 1.37367 42 ft 0 kts 332°
2026-05-01 15:03 38.87735 1.37366 42 ft 0 kts 332°
2026-05-01 15:04 38.87728 1.37371 42 ft 2 kts 332°
2026-05-01 15:04 38.87715 1.37380 41 ft 2 kts 332°
2026-05-01 15:04 38.87701 1.37389 40 ft 2 kts 339°
2026-05-01 15:04 38.87687 1.37387 40 ft 2 kts 37°
2026-05-01 15:05 38.87681 1.37377 40 ft 0 kts 62°
2026-05-01 15:05 38.87682 1.37377 40 ft 0 kts 62°
2026-05-01 15:08 38.87682 1.37378 40 ft 1 kts 62°
2026-05-01 15:08 38.87702 1.37431 40 ft 9 kts 75°
2026-05-01 15:08 38.87671 1.37497 37 ft 12 kts 153°
2026-05-01 15:08 38.87599 1.37545 33 ft 6 kts 151°
2026-05-01 15:09 38.87553 1.37514 32 ft 11 kts 245°
2026-05-01 15:09 38.87512 1.37410 31 ft 15 kts 242°
2026-05-01 15:09 38.87455 1.37272 31 ft 18 kts 243°
2026-05-01 15:09 38.87389 1.37111 29 ft 22 kts 241°
2026-05-01 15:10 38.87320 1.36946 26 ft 22 kts 242°
2026-05-01 15:10 38.87149 1.36531 20 ft 28 kts 242°
2026-05-01 15:10 38.87076 1.36355 19 ft 21 kts 242°
2026-05-01 15:11 38.86999 1.36169 18 ft 24 kts 241°
2026-05-01 15:11 38.86853 1.35825 11 ft 9 kts 223°
2026-05-01 15:11 38.86797 1.35837 11 ft 4 kts 151°
2026-05-01 15:12 38.86789 1.35842 11 ft 0 kts 152°
2026-05-01 15:24 38.86747 1.35870 11 ft 13 kts 153°
2026-05-01 15:24 38.86713 1.35935 11 ft 4 kts 60°
2026-05-01 15:25 38.86716 1.35943 11 ft 0 kts 60°
2026-05-01 15:25 38.86735 1.35984 12 ft 28 kts 62°
2026-05-01 15:26 38.87003 1.36632 18 ft 130 kts 62°
2026-05-01 15:26 38.87516 1.37848 468 ft 171 kts 62°
2026-05-01 15:26 38.88057 1.39250 1462 ft 184 kts 67°
2026-05-01 15:26 38.88420 1.40827 2537 ft 197 kts 75°
2026-05-01 15:27 38.88733 1.42573 3720 ft 210 kts 76°
2026-05-01 15:27 38.89064 1.44400 4765 ft 226 kts 76°
2026-05-01 15:27 38.89447 1.46469 5279 ft 247 kts 76°
2026-05-01 15:28 38.90298 1.50986 7531 ft 274 kts 76°
2026-05-01 15:28 38.90792 1.53328 8759 ft 281 kts 68°
2026-05-01 15:28 38.91855 1.55411 9948 ft 288 kts 44°
2026-05-01 15:29 38.94900 1.58919 12345 ft 302 kts 41°
2026-05-01 15:29 38.96459 1.60707 13523 ft 307 kts 41°
2026-05-01 15:29 38.99716 1.64312 15807 ft 316 kts 32°
2026-05-01 15:30 39.03980 1.65767 17685 ft 327 kts
2026-05-01 15:31 39.13038 1.64630 21224 ft 344 kts 335°
2026-05-01 15:31 39.17441 1.62156 22840 ft 351 kts 335°
2026-05-01 15:32 39.21989 1.59606 24440 ft 359 kts 335°
2026-05-01 15:32 39.26588 1.57024 25970 ft 366 kts 335°
2026-05-01 15:33 39.33699 1.53029 28008 ft 376 kts 334°
2026-05-01 15:34 39.41001 1.48920 29768 ft 388 kts 334°